Iowa City, IA

4:29 AM CST on November 22, 2019 (GMT -0600)
Iowa City Municipal

Weather History for KIOW - October, 2019

Change the Weather History Date:

Monday, October 21, 2019

  Actual Average Record
Temperature  
Mean Temperature 55 °F 50 °F  
Max Temperature 61 °F 61 °F 84 °F (1979)
Min Temperature 49 °F 40 °F 16 °F (1952)
Degree Days  
Heating Degree Days 10 15  
Month to date heating degree days 246 244  
Since 1 July heating degree days 253 356  
Cooling Degree Days 0 0  
Month to date cooling degree days 18 10  
Year to date cooling degree days 1175 912  
Growing Degree Days 4 (Base 50)    
Moisture  
Dew Point 48 °F    
Average Humidity 73    
Maximum Humidity 93    
Minimum Humidity 53    
Precipitation  
Precipitation 0.21 in 0.09 in 1.07 in (1949)
Month to date precipitation 1.87 1.91  
Year to date precipitation 38.84 31.45  
Sea Level Pressure  
Sea Level Pressure 29.45 in    
Wind  
Wind Speed 16 mph (South)    
Max Wind Speed 26 mph    
Max Gust Speed 39 mph    
Visibility 9 miles    
Events Rain , Thunderstorm    
T = Trace of Precipitation, MM = Missing Value Source: NWS Daily Summary

Daily Weather History Graph

Daily Weather History Graph

Search for Another Location

Airport or City:

Astronomy

Oct. 21, 2019 Rise Set
Actual Time 7:24 AM CDT 6:16 PM CDT
Civil Twilight 6:56 AM CDT 6:44 PM CDT
Nautical Twilight 6:24 AM CDT 7:16 PM CDT
Astronomical Twilight 5:52 AM CDT 7:48 PM CDT
Moon No Moon Rise 2:46 PM CDT (10/21)
Length of Visible Light 11h 47m
Length of Day
10h 51m
Waning Gibbous, 48% of the Moon is Illuminated
Oct 21
Waning Gibbous
Oct 27
New
Nov 4
First Quarter
Nov 12
Full
Nov 19
Last Quarter

Hourly Weather History & Observations

Time (CDT) Temp. Dew Point Humidity Pressure Visibility Wind Dir Wind Speed Gust Speed Precip Events Conditions
12:52 AM 55.9 °F 48.9 °F 77% 29.70 in 10.0 mi East 6.9 mph - N/A   Overcast
1:52 AM 55.0 °F 48.9 °F 80% 29.65 in 10.0 mi ESE 10.4 mph 19.6 mph N/A   Clear
2:52 AM 55.9 °F 50.0 °F 80% 29.60 in 10.0 mi ESE 11.5 mph 18.4 mph N/A   Overcast
3:48 AM 55.4 °F 51.8 °F 88% 29.54 in 9.0 mi ESE 13.8 mph 21.9 mph 0.02 in Rain , Thunderstorm Light Rain
3:52 AM 55.9 °F 51.1 °F 84% 29.53 in 9.0 mi ESE 11.5 mph 21.9 mph 0.02 in Rain , Thunderstorm Light Rain
4:13 AM 55.9 °F 51.1 °F 84% 29.51 in 7.0 mi East 9.2 mph 20.7 mph 0.02 in Rain , Thunderstorm Thunderstorms and Rain
4:37 AM 57.0 °F 52.0 °F 83% 29.54 in 5.0 mi SSE 16.1 mph 28.8 mph 0.07 in Rain , Thunderstorm Light Thunderstorms and Rain
4:52 AM 55.9 °F 52.0 °F 87% 29.52 in 5.0 mi SE 10.4 mph - 0.10 in Rain , Thunderstorm Light Rain
5:03 AM 55.9 °F 53.1 °F 90% 29.53 in 8.0 mi SE 9.2 mph - 0.00 in Rain Light Rain
5:40 AM 55.9 °F 53.1 °F 90% 29.46 in 7.0 mi ESE 13.8 mph 23.0 mph 0.02 in Rain Light Rain
6:24 AM 57.0 °F 54.0 °F 89% 29.38 in 10.0 mi ESE 12.7 mph 25.3 mph 0.01 in   Overcast
6:52 AM 57.0 °F 54.0 °F 89% 29.35 in 10.0 mi ESE 11.5 mph 20.7 mph 0.01 in   Overcast
7:52 AM 57.0 °F 55.0 °F 93% 29.36 in 10.0 mi SSE 6.9 mph - N/A   Overcast
8:52 AM 57.9 °F 55.0 °F 90% 29.35 in 9.0 mi South 10.4 mph - 0.05 in Rain Light Rain
9:21 AM 59.0 °F 55.9 °F 90% 29.34 in 7.0 mi South 13.8 mph 23.0 mph 0.00 in Rain Light Rain
9:29 AM 59.0 °F 55.9 °F 90% 29.34 in 8.0 mi SSW 18.4 mph 27.6 mph 0.01 in Rain Light Rain
9:52 AM 59.0 °F 54.0 °F 83% 29.34 in 10.0 mi SW 13.8 mph 25.3 mph 0.01 in   Overcast
10:02 AM 59.0 °F 55.0 °F 87% 29.33 in 10.0 mi SW 12.7 mph 23.0 mph N/A   Overcast
10:39 AM 61.0 °F 53.1 °F 75% 29.34 in 10.0 mi WSW 17.3 mph 28.8 mph N/A   Mostly Cloudy
10:52 AM 60.1 °F 50.0 °F 69% 29.34 in 10.0 mi SW 16.1 mph 27.6 mph N/A   Scattered Clouds
11:52 AM 61.0 °F 44.1 °F 54% 29.36 in 10.0 mi SSW 23.0 mph 34.5 mph 0.00 in Rain Light Rain
12:52 PM 59.0 °F 42.1 °F 53% 29.38 in 10.0 mi SSW 15.0 mph 33.4 mph 0.00 in Rain Light Rain
1:52 PM 57.9 °F 42.1 °F 56% 29.38 in 10.0 mi SW 18.4 mph 29.9 mph 0.00 in   Overcast
2:52 PM 57.0 °F 42.1 °F 57% 29.40 in 10.0 mi SW 17.3 mph 28.8 mph 0.00 in   Overcast
3:52 PM 54.0 °F 39.9 °F 59% 29.44 in 10.0 mi SSW 20.7 mph 35.7 mph N/A   Overcast
4:52 PM 53.1 °F 37.9 °F 57% 29.46 in 10.0 mi SW 18.4 mph 32.2 mph N/A   Overcast
5:52 PM 53.1 °F 39.0 °F 59% 29.47 in 10.0 mi SSW 13.8 mph 26.5 mph N/A   Overcast
6:52 PM 51.1 °F 42.1 °F 71% 29.49 in 9.0 mi SSW 15.0 mph 23.0 mph 0.00 in Rain Light Rain
7:52 PM 52.0 °F 43.0 °F 71% 29.49 in 10.0 mi SSW 13.8 mph 25.3 mph 0.00 in   Overcast
8:52 PM 52.0 °F 43.0 °F 71% 29.47 in 10.0 mi SSW 17.3 mph 28.8 mph N/A   Mostly Cloudy
9:52 PM 51.1 °F 44.1 °F 77% 29.47 in 10.0 mi WSW 18.4 mph 33.4 mph 0.00 in Rain Light Rain
10:15 PM 50.0 °F 44.1 °F 80% 29.48 in 10.0 mi WSW 20.7 mph 32.2 mph 0.00 in Rain Light Rain
10:52 PM 48.9 °F 41.0 °F 74% 29.49 in 10.0 mi WSW 18.4 mph 31.1 mph 0.00 in   Overcast
11:52 PM 48.9 °F 42.1 °F 77% 29.48 in 10.0 mi SW 18.4 mph 29.9 mph 0.00 in   Overcast